Danville, VA

10:46 AM EDT on April 28, 2017 (GMT -0400)
Danville Regional

Weather History for KDAN - May, 2013

Change the Weather History Date:

Saturday, May 11, 2013

  Actual Average Record
Temperature  
Mean Temperature 72 °F 65 °F  
Max Temperature 80 °F 76 °F 94 °F (1953)
Min Temperature 64 °F 54 °F 32 °F (1966)
Degree Days  
Heating Degree Days 0 3  
Month to date heating degree days 57 39  
Since 1 July heating degree days 3726 3782  
Cooling Degree Days 7 3  
Month to date cooling degree days 12 25  
Year to date cooling degree days 60 59  
Growing Degree Days 22 (Base 50)    
Moisture  
Dew Point 60 °F    
Average Humidity 73    
Maximum Humidity 93    
Minimum Humidity 52    
Precipitation  
Precipitation 0.04 in 0.13 in 1.49 in (1951)
Month to date precipitation 2.92 1.23  
Year to date precipitation 18.32 15.23  
Snow  
Snow 0.00 in - - ()
Month to date snowfall 0.0  
Since 1 July snowfall 1.7  
Snow Depth 0.00 in    
Sea Level Pressure  
Sea Level Pressure 29.83 in    
Wind  
Wind Speed 7 mph (SW)    
Max Wind Speed 17 mph    
Max Gust Speed 22 mph    
Visibility 10 miles    
Events Rain , Thunderstorm    
T = Trace of Precipitation, MM = Missing Value Source: NWS Daily Summary

Daily Weather History Graph

Daily Weather History Graph

Search for Another Location

Airport or City:

Trip Planner

Search our weather history database for the weather conditions in past years. The results will help you decide how hot, cold, wet, or windy it might be!

Date:

Astronomy

May. 11, 2013 Rise Set
Actual Time 6:13 AM EDT 8:14 PM EDT
Civil Twilight 5:45 AM EDT 8:43 PM EDT
Nautical Twilight 5:10 AM EDT 9:17 PM EDT
Astronomical Twilight 4:33 AM EDT 9:55 PM EDT
Moon 7:20 AM EDT (5/11) 9:52 PM EDT (5/11)
Length of Visible Light 14h 57m
Length of Day
14h 00m
Waxing Crescent, 3% of the Moon is Illuminated
May 11
Waxing Crescent
May 18
First Quarter
May 25
Full
May 31
Last Quarter
Jun 8
New

Hourly Weather History & Observations

Time (EDT) Temp. Dew Point Humidity Pressure Visibility Wind Dir Wind Speed Gust Speed Precip Events Conditions
12:53 AM 69.1 °F 60.1 °F 73% 29.91 in 10.0 mi SSW 4.6 mph - N/A   Mostly Cloudy
1:53 AM 68.0 °F 60.1 °F 76% 29.91 in 10.0 mi SSW 3.5 mph - N/A   Clear
2:53 AM 69.1 °F 59.0 °F 70% 29.88 in 10.0 mi SSW 3.5 mph - N/A   Clear
3:53 AM 69.1 °F 59.0 °F 70% 29.87 in 10.0 mi South 5.8 mph - N/A   Clear
4:53 AM 68.0 °F 59.0 °F 73% 29.87 in 10.0 mi SSW 4.6 mph - N/A   Scattered Clouds
5:53 AM 66.9 °F 59.0 °F 76% 29.86 in 10.0 mi SSW 4.6 mph - N/A   Clear
6:53 AM 66.9 °F 60.1 °F 79% 29.87 in 10.0 mi SSW 5.8 mph - N/A   Overcast
7:53 AM 68.0 °F 60.1 °F 76% 29.87 in 10.0 mi South 5.8 mph - N/A   Overcast
8:53 AM 70.0 °F 60.1 °F 71% 29.86 in 10.0 mi SSW 9.2 mph - N/A   Overcast
9:53 AM 73.0 °F 60.1 °F 64% 29.86 in 10.0 mi SW 12.7 mph 20.7 mph N/A   Mostly Cloudy
10:53 AM 75.9 °F 60.1 °F 58% 29.85 in 10.0 mi SW 12.7 mph - N/A   Partly Cloudy
11:53 AM 77.0 °F 60.1 °F 56% 29.85 in 10.0 mi WSW 11.5 mph 19.6 mph N/A   Overcast
12:53 PM 77.0 °F 59.0 °F 54% 29.84 in 10.0 mi SW 12.7 mph - N/A   Overcast
1:53 PM 77.0 °F 59.0 °F 54% 29.82 in 10.0 mi WSW 11.5 mph - N/A   Overcast
2:53 PM 79.0 °F 59.0 °F 50% 29.80 in 10.0 mi SW 13.8 mph - N/A   Clear
3:53 PM 79.0 °F 59.0 °F 50% 29.78 in 10.0 mi WSW 10.4 mph - N/A   Partly Cloudy
4:53 PM 78.1 °F 59.0 °F 52% 29.78 in 10.0 mi WSW 10.4 mph - N/A   Clear
5:53 PM 79.0 °F 59.0 °F 50% 29.77 in 10.0 mi WSW 12.7 mph - N/A   Clear
6:53 PM 77.0 °F 59.0 °F 54% 29.74 in 10.0 mi WSW 6.9 mph - N/A   Mostly Cloudy
7:04 PM 75.2 °F 60.8 °F 61% 29.79 in 10.0 mi SSW 6.9 mph - 0.00 in Rain , Thunderstorm Light Rain
7:23 PM 73.4 °F 60.8 °F 65% 29.79 in 10.0 mi SW 6.9 mph - 0.00 in   Overcast
7:39 PM 71.6 °F 62.6 °F 73% 29.80 in 10.0 mi SSW 9.2 mph - 0.00 in Thunderstorm Overcast
7:53 PM 70.0 °F 62.1 °F 76% 29.78 in 10.0 mi SSW 4.6 mph - 0.00 in Thunderstorm Overcast
8:05 PM 69.8 °F 60.8 °F 73% 29.81 in 10.0 mi South 9.2 mph - N/A   Overcast
8:53 PM 68.0 °F 61.0 °F 78% 29.80 in 10.0 mi NNW 5.8 mph - 0.00 in   Overcast
10:53 PM 64.9 °F 62.1 °F 90% 29.80 in 10.0 mi SW 3.5 mph - 0.01 in Rain Light Rain
11:53 PM 64.0 °F 62.1 °F 93% 29.78 in 8.0 mi Calm Calm - 0.00 in   Partly Cloudy